Location: Katowice
(50.2611°N, 19.0242°E)
Time: 20:25:11
(UTC+02:00)

Explorer 7 - Pass Details

Date: 30 August 2019
Orbit: 485 x 680 km, 50.3° (Epoch: 22 September)

Event Time Altitude Azimuth Distance (km) Brightness Sun altitude
Rises 08:46:52 0° 247° (WSW) 3,028 10.2 26.2°
Reaches altitude 10° 08:49:16 10° 245° (WSW) 2,108 9.5 26.6°
Maximum altitude 08:54:08 71° 162° (SSE) 704 8.0 27.3°
Drops below altitude 10° 08:58:50 10° 80° (E) 2,041 10.8 28.0°
Sets 09:01:07 0° 78° (ENE) 2,923 11.3 28.4°
